Voltar ao catálogo

FLOCK 4H 17

AtivoCiênciaSSO
NORAD 66720·PAYLOAD·🇺🇸 United States

Lançado Nov 28, 2025 de Vandenberg Space Force Base

Loading…

Próximas Passagens (próximas 24 horas)

TLE

AtualizadoSource: Space-Track

Época: Sep 14, 2026, 10:54 UTC

1 66720U 25276BG  26257.45431854  .00010112  00000-0  40831-3 0  9993
2 66720  97.4134 330.5277 0003225  34.9485 325.1964 15.24964919 44045

Acompanhe FLOCK 4H 17 em tempo real com AllMySat

Download on the App Store